METAR LOCAUX

2020/05/25 12:00 LFST 251200Z AUTO 34003KT 310V020 9999 FEW043 OVC074 19/09 Q1033 NOSIG
2020/05/25 11:50 EDSB 251150Z VRB01KT 9999 FEW031 SCT045 18/09 Q1033
2020/05/25 12:00 LFGA 251200Z AUTO 36008KT 330V050 9999 FEW052 BKN074 20/08 Q1032
www.noaa.gov

Ne pas utiliser pour préparer ou effectuer un vol: Utilisez la documentation officielle disponible sur aviation.meteo.fr (Aéroweb)


"Le soleil du matin ne dure pas forcément toute la journée."

Animation satellite IR

Meteociel.fr

"Derrière chaque nuage se cache le ciel bleu."

Radar pluie

Infoclimat.fr

"Si tu veux l’arc-en-ciel, tu dois supporter la pluie."
Dolly Parton

Nébulosité (octas)

Meteociel.fr

"Le soleil est souvent obscurci par les nuages et la raison par les passions."
Démophile

Impacts de foudre

www.meteo60.fr

"Celui que frappe la foudre n'entend pas le tonnerre."

Vigilance météo

vigilance-meteo.fr

"Tout nuage n'enfante pas une tempête."
William Shakespeare

TAF locaux

2020/05/25 12:47 TAF LFST 251100Z 2512/2612 36004KT 9999 SCT040
2020/05/25 12:31 TAF EDSB 251100Z 2512/2612 02005KT 9999 FEW030 BECMG 2519/2521 VRB03KT BECMG 2606/2609 02010KT
www.noaa.gov

Ne pas utiliser pour préparer ou effectuer un vol: Utilisez la documentation officielle disponible sur aviation.meteo.fr (Aéroweb)


"Les jours où le ciel est gris, le soleil n'a pas disparu à tout jamais."
Arnaud Desjardins

Prévisions 7 jours


Meteoblue.com

"Quand les crapauds chantent, le beau temps s'avance !"